Pittsburgh, PA

8:05 AM EDT on October 19, 2017 (GMT -0400)
Pittsburgh International

Weather History for KPIT - April, 2010

Change the Weather History Date:

Friday, April 30, 2010

  Actual Average Record
Temperature  
Mean Temperature 62 °F 56 °F  
Max Temperature 81 °F 67 °F 88 °F (1899)
Min Temperature 43 °F 45 °F 28 °F (1977)
Degree Days  
Heating Degree Days 3 10  
Month to date heating degree days 301 430  
Since 1 July heating degree days 5326 5476  
Cooling Degree Days 0 0  
Month to date cooling degree days 19 9  
Year to date cooling degree days 19 10  
Growing Degree Days 12 (Base 50)    
Moisture  
Dew Point 42 °F    
Average Humidity 48    
Maximum Humidity 70    
Minimum Humidity 26    
Precipitation  
Precipitation 0.00 in 0.10 in 1.01 in (1908)
Month to date precipitation 1.76 3.11  
Year to date precipitation 10.07 11.15  
Snow  
Snow 0.00 in 0.00 in 0.50 in (1908)
Month to date snowfall T 1.5  
Since 1 July snowfall 77.4 41.9  
Snow Depth 0.00 in    
Sea Level Pressure  
Sea Level Pressure 29.85 in    
Wind  
Wind Speed 7 mph (SSW)    
Max Wind Speed 18 mph    
Max Gust Speed 25 mph    
Visibility 10 miles    
Events      
T = Trace of Precipitation, MM = Missing Value Source: NWS Daily Summary

Daily Weather History Graph

Daily Weather History Graph

Search for Another Location

Airport or City:

Trip Planner

Search our weather history database for the weather conditions in past years. The results will help you decide how hot, cold, wet, or windy it might be!

Date:

Astronomy

Apr. 30, 2010 Rise Set
Actual Time 6:21 AM EDT 8:15 PM EDT
Civil Twilight 5:51 AM EDT 8:45 PM EDT
Nautical Twilight 5:15 AM EDT 9:21 PM EDT
Astronomical Twilight 4:37 AM EDT 10:00 PM EDT
Moon 11:06 PM EDT (4/30) 7:25 AM EDT (4/30)
Length of Visible Light 14h 53m
Length of Day
13h 54m
Waning Gibbous, 94% of the Moon is Illuminated
Apr 30
Waning Gibbous
May 6
Last Quarter
May 13
New
May 20
First Quarter
May 27
Full

Hourly Weather History & Observations

Time (EDT) Temp. Dew Point Humidity Pressure Visibility Wind Dir Wind Speed Gust Speed Precip Events Conditions
12:51 AM 52.0 °F 33.1 °F 49% 29.87 in 10.0 mi SSE 3.5 mph - N/A   Scattered Clouds
1:51 AM 50.0 °F 33.1 °F 52% 29.85 in 10.0 mi SE 3.5 mph - N/A   Scattered Clouds
2:51 AM 51.1 °F 33.1 °F 50% 29.86 in 10.0 mi Calm Calm - N/A   Partly Cloudy
3:51 AM 48.9 °F 34.0 °F 56% 29.87 in 10.0 mi Calm Calm - N/A   Partly Cloudy
4:51 AM 46.9 °F 35.1 °F 63% 29.89 in 10.0 mi Calm Calm - N/A   Partly Cloudy
5:51 AM 44.1 °F 36.0 °F 73% 29.91 in 10.0 mi Calm Calm - N/A   Partly Cloudy
6:51 AM 45.0 °F 36.0 °F 71% 29.91 in 10.0 mi Calm Calm - N/A   Scattered Clouds
7:51 AM 48.9 °F 37.0 °F 64% 29.92 in 10.0 mi SSE 4.6 mph - N/A   Partly Cloudy
8:51 AM 59.0 °F 39.9 °F 49% 29.92 in 10.0 mi South 5.8 mph - N/A   Partly Cloudy
9:51 AM 66.9 °F 44.1 °F 44% 29.91 in 10.0 mi WSW 12.7 mph - N/A   Partly Cloudy
10:51 AM 69.1 °F 46.0 °F 44% 29.90 in 10.0 mi SW 12.7 mph 18.4 mph N/A   Clear
11:51 AM 71.1 °F 46.9 °F 42% 29.88 in 10.0 mi SW 10.4 mph 19.6 mph N/A   Clear
12:51 PM 73.9 °F 48.0 °F 40% 29.86 in 10.0 mi SSW 13.8 mph - N/A   Clear
1:51 PM 75.9 °F 48.9 °F 38% 29.83 in 10.0 mi SW 10.4 mph 21.9 mph N/A   Clear
2:51 PM 78.1 °F 48.9 °F 36% 29.83 in 10.0 mi SW 15.0 mph 21.9 mph N/A   Clear
3:51 PM 80.1 °F 46.9 °F 31% 29.81 in 10.0 mi WSW 15.0 mph 21.9 mph N/A   Partly Cloudy
4:51 PM 80.1 °F 45.0 °F 29% 29.80 in 10.0 mi SW 11.5 mph 20.7 mph N/A   Partly Cloudy
5:51 PM 81.0 °F 43.0 °F 26% 29.80 in 10.0 mi SW 10.4 mph - N/A   Partly Cloudy
6:51 PM 80.1 °F 43.0 °F 27% 29.80 in 10.0 mi SSW 10.4 mph - N/A   Partly Cloudy
7:51 PM 79.0 °F 44.1 °F 29% 29.79 in 10.0 mi SSW 5.8 mph - N/A   Clear
8:51 PM 75.0 °F 46.0 °F 36% 29.80 in 10.0 mi Calm Calm - N/A   Partly Cloudy
9:51 PM 72.0 °F 45.0 °F 38% 29.81 in 10.0 mi South 3.5 mph - N/A   Clear
10:51 PM 70.0 °F 45.0 °F 41% 29.81 in 10.0 mi South 4.6 mph - N/A   Clear
11:51 PM 68.0 °F 45.0 °F 43% 29.81 in 10.0 mi South 3.5 mph - N/A   Clear